TimeCST,TemperatureF,Dew PointF,Humidity,Sea Level PressureIn,VisibilityMPH,Wind Direction,Wind SpeedMPH,Gust SpeedMPH,PrecipitationIn,Events,Conditions,WindDirDegrees,DateUTC
12:06 AM,19.4,14.0,80,30.28,10.0,SE,5.8,-,N/A,,Clear,140,2009-01-01 06:06:00
12:26 AM,19.4,15.8,86,30.26,10.0,SE,9.2,-,N/A,,Clear,140,2009-01-01 06:26:00
12:46 AM,19.4,15.8,86,30.25,10.0,SE,8.1,-,N/A,,Clear,140,2009-01-01 06:46:00
1:06 AM,19.4,15.8,86,30.25,10.0,SSE,6.9,-,N/A,,Clear,150,2009-01-01 07:06:00
1:26 AM,19.4,15.8,86,30.24,10.0,SE,9.2,-,N/A,,Clear,140,2009-01-01 07:26:00
1:46 AM,19.4,15.8,86,30.23,10.0,SE,9.2,-,N/A,,Clear,140,2009-01-01 07:46:00
2:06 AM,19.4,15.8,86,30.22,10.0,SSE,8.1,-,N/A,,Clear,150,2009-01-01 08:06:00
2:27 AM,19.4,15.8,86,30.21,10.0,SSE,10.4,-,N/A,,Clear,150,2009-01-01 08:27:00
2:46 AM,19.4,15.8,86,30.20,10.0,SSE,12.7,18.4,N/A,,Clear,150,2009-01-01 08:46:00
3:06 AM,19.4,15.8,86,30.19,10.0,SSE,12.7,-,N/A,,Clear,150,2009-01-01 09:06:00
3:27 AM,19.4,15.8,86,30.17,10.0,SE,11.5,-,N/A,,Clear,140,2009-01-01 09:27:00
3:46 AM,19.4,15.8,86,30.16,10.0,SE,11.5,-,N/A,,Clear,140,2009-01-01 09:46:00
4:26 AM,19.4,15.8,86,30.13,10.0,SE,12.7,-,N/A,,Clear,140,2009-01-01 10:26:00
4:46 AM,19.4,17.6,93,30.10,10.0,SSE,16.1,-,N/A,,Clear,150,2009-01-01 10:46:00
5:06 AM,19.4,17.6,93,30.11,10.0,SSE,10.4,-,N/A,,Clear,150,2009-01-01 11:06:00
5:26 AM,19.4,17.6,93,30.11,10.0,SSE,11.5,17.3,N/A,,Clear,150,2009-01-01 11:26:00
5:46 AM,19.4,17.6,93,30.11,10.0,SSE,8.1,-,N/A,,Clear,160,2009-01-01 11:46:00
6:06 AM,19.4,17.6,93,30.12,10.0,SSE,8.1,-,N/A,,Clear,150,2009-01-01 12:06:00
6:26 AM,19.4,17.6,93,30.13,10.0,SSE,6.9,-,N/A,,Clear,150,2009-01-01 12:26:00
6:46 AM,19.4,17.6,93,30.13,10.0,SE,6.9,-,N/A,,Clear,140,2009-01-01 12:46:00
7:06 AM,19.4,17.6,93,30.13,10.0,SE,6.9,-,N/A,,Clear,140,2009-01-01 13:06:00
7:26 AM,19.4,17.6,93,30.13,10.0,SSE,6.9,-,N/A,,Clear,150,2009-01-01 13:26:00
7:46 AM,19.4,17.6,93,30.11,10.0,SSE,9.2,-,N/A,,Clear,150,2009-01-01 13:46:00
8:07 AM,21.2,17.6,86,30.10,10.0,SSE,11.5,-,N/A,,Clear,150,2009-01-01 14:07:00
8:26 AM,21.2,17.6,86,30.09,10.0,SSE,11.5,17.3,N/A,,Clear,150,2009-01-01 14:26:00
8:46 AM,21.2,17.6,86,30.07,10.0,SSE,17.3,-,N/A,,Clear,150,2009-01-01 14:46:00
9:06 AM,24.8,19.4,80,30.07,10.0,SSE,16.1,21.9,N/A,,Clear,160,2009-01-01 15:06:00
9:28 AM,24.8,19.4,80,30.07,10.0,SSE,15.0,23.0,N/A,,Clear,160,2009-01-01 15:28:00
9:46 AM,26.6,19.4,74,30.06,10.0,South,16.1,26.5,N/A,,Clear,170,2009-01-01 15:46:00
10:06 AM,26.6,19.4,74,30.04,10.0,South,17.3,24.2,N/A,,Clear,170,2009-01-01 16:06:00
10:26 AM,28.4,19.4,69,30.03,10.0,South,17.3,25.3,N/A,,Clear,180,2009-01-01 16:26:00
10:46 AM,28.4,19.4,69,30.02,10.0,South,13.8,24.2,N/A,,Clear,170,2009-01-01 16:46:00
11:06 AM,30.2,19.4,64,30.00,10.0,South,16.1,23.0,N/A,,Clear,180,2009-01-01 17:06:00
11:26 AM,30.2,19.4,64,29.98,10.0,South,13.8,21.9,N/A,,Clear,170,2009-01-01 17:26:00
11:46 AM,30.2,19.4,64,29.95,10.0,South,15.0,19.6,N/A,,Clear,170,2009-01-01 17:46:00
12:06 PM,33.8,21.2,60,29.93,10.0,South,15.0,-,N/A,,Clear,170,2009-01-01 18:06:00
12:26 PM,33.8,21.2,60,29.91,10.0,SSE,16.1,21.9,N/A,,Clear,160,2009-01-01 18:26:00
12:49 PM,33.8,21.2,60,29.90,10.0,South,12.7,17.3,N/A,,Clear,170,2009-01-01 18:49:00
1:06 PM,35.6,21.2,56,29.89,10.0,South,10.4,-,N/A,,Clear,190,2009-01-01 19:06:00
1:26 PM,35.6,21.2,56,29.87,10.0,South,13.8,18.4,N/A,,Clear,180,2009-01-01 19:26:00
1:46 PM,35.6,21.2,56,29.86,10.0,South,12.7,-,N/A,,Clear,180,2009-01-01 19:46:00
2:07 PM,35.6,21.2,56,29.85,10.0,South,12.7,16.1,N/A,,Clear,180,2009-01-01 20:07:00
2:26 PM,35.6,21.2,56,29.86,10.0,South,8.1,-,N/A,,Clear,190,2009-01-01 20:26:00
2:49 PM,35.6,21.2,56,29.86,10.0,South,6.9,-,N/A,,Clear,180,2009-01-01 20:49:00
3:07 PM,35.6,21.2,56,29.85,10.0,South,5.8,-,N/A,,Clear,190,2009-01-01 21:07:00
3:26 PM,37.4,23.0,56,29.85,10.0,South,5.8,-,N/A,,Clear,170,2009-01-01 21:26:00
3:47 PM,35.6,24.8,65,29.85,10.0,South,4.6,-,N/A,,Clear,170,2009-01-01 21:47:00
4:06 PM,35.6,24.8,65,29.85,10.0,SW,3.5,-,N/A,,Clear,220,2009-01-01 22:06:00
4:27 PM,35.6,24.8,65,29.86,10.0,Calm,Calm,-,N/A,,Clear,0,2009-01-01 22:27:00
4:50 PM,35.6,21.2,56,29.87,10.0,Calm,Calm,-,N/A,,Clear,0,2009-01-01 22:50:00
5:08 PM,35.6,21.2,56,29.87,10.0,Calm,Calm,-,N/A,,Clear,0,2009-01-01 23:08:00
5:28 PM,33.8,26.6,75,29.88,10.0,Calm,Calm,-,N/A,,Clear,0,2009-01-01 23:28:00
5:48 PM,33.8,24.8,70,29.87,10.0,South,3.5,-,N/A,,Clear,190,2009-01-01 23:48:00
6:08 PM,33.8,26.6,75,29.85,10.0,SSE,3.5,-,N/A,,Clear,160,2009-01-02 00:08:00
6:26 PM,32.0,26.6,80,29.86,10.0,South,3.5,-,N/A,,Clear,190,2009-01-02 00:26:00
6:46 PM,33.8,24.8,70,29.86,10.0,SSW,3.5,-,N/A,,Scattered Clouds,210,2009-01-02 00:46:00
7:08 PM,33.8,24.8,70,29.86,10.0,Calm,Calm,-,N/A,,Scattered Clouds,0,2009-01-02 01:08:00
7:26 PM,33.8,24.8,70,29.85,10.0,SSW,3.5,-,N/A,,Scattered Clouds,210,2009-01-02 01:26:00
7:46 PM,32.0,26.6,80,29.86,10.0,SW,4.6,-,N/A,,Clear,220,2009-01-02 01:46:00
8:08 PM,33.8,26.6,75,29.86,10.0,WSW,5.8,-,N/A,,Clear,240,2009-01-02 02:08:00
8:26 PM,33.8,24.8,70,29.87,10.0,West,5.8,-,N/A,,Clear,260,2009-01-02 02:26:00
8:46 PM,33.8,24.8,70,29.86,10.0,WSW,4.6,-,N/A,,Clear,240,2009-01-02 02:46:00
9:06 PM,33.8,24.8,70,29.87,10.0,WSW,4.6,-,N/A,,Clear,250,2009-01-02 03:06:00
9:26 PM,33.8,24.8,70,29.86,10.0,WSW,4.6,-,N/A,,Clear,240,2009-01-02 03:26:00
9:46 PM,33.8,24.8,70,29.86,10.0,WSW,3.5,-,N/A,,Clear,240,2009-01-02 03:46:00
10:07 PM,32.0,24.8,75,29.87,10.0,WSW,4.6,-,N/A,,Clear,240,2009-01-02 04:07:00
10:26 PM,32.0,24.8,75,29.87,10.0,SW,4.6,-,N/A,,Clear,220,2009-01-02 04:26:00
10:46 PM,32.0,24.8,75,29.88,10.0,SW,5.8,-,N/A,,Clear,230,2009-01-02 04:46:00
11:06 PM,30.2,24.8,80,29.88,10.0,SW,5.8,-,N/A,,Clear,230,2009-01-02 05:06:00
11:28 PM,30.2,24.8,80,29.87,10.0,SSW,5.8,-,N/A,,Clear,210,2009-01-02 05:28:00
11:46 PM,30.2,24.8,80,29.87,10.0,SSW,5.8,-,N/A,,Clear,210,2009-01-02 05:46:00